Regional Weather Roundup
Issued by NWS Upton, NY

Current Version | Previous Version | Text Only | Print | Product List | Glossary On
Versions: 1 2 3 4 5 6 7 8 9 10 11 12 13 14 15 16 17 18 19 20 21 22 23 24 25 26 27 28 29 30 31 32 33 34 35 36 37 38 39 40 41 42 43 44 45 46 47
000 ASUS41 KOKX 220805 RWROKX REGIONAL WEATHER ROUNDUP NATIONAL WEATHER SERVICE NEW YORK NY 300 AM EST MON DEC 22 2014 NOTE: "FAIR" INDICATES FEW OR NO CLOUDS BELOW 12,000 FEET WITH NO SIGNIFICANT WEATHER AND/OR OBSTRUCTIONS TO VISIBILITY. NYZ071-072-176-178-NJZ106-104-220900- NEW YORK CITY METRO AREA CITY SKY/WX TMP DP RH WIND PRES REMARKS CENTRAL PARK CLOUDY 35 29 78 VRB3 30.35S LAGUARDIA APRT CLOUDY 36 30 79 N3 30.33R KENNEDY INTL CLOUDY 38 32 79 N6 30.34R WCI 33 NEWARK/LIBERTY CLOUDY 35 30 82 N5 30.34R WCI 31 BRNX BOT. GARD N/A 34 32 93 CALM 30.36R TETERBORO CLOUDY 35 29 78 N3 30.34R $$ NYZ177-179-078>081-220900- LONG ISLAND NEW YORK CITY SKY/WX TMP DP RH WIND PRES REMARKS FARMINGDALE CLOUDY 37 34 89 N6 30.33R WCI 32 ISLIP CLOUDY 38 34 85 N5 30.31R WCI 34 SHIRLEY CLOUDY 38 35 89 N6 30.33R WCI 33 WESTHAMPTON CLOUDY 37 35 92 N6 30.33R WCI 32 MONTAUK POINT N/A 40 36 86 NE10 30.32S WCI 33 $$ NYZ052-065-067-220900- HUDSON VALLEY CITY SKY/WX TMP DP RH WIND PRES REMARKS WHITE PLAINS LGTSLEET 33 30 88 NW3 30.31R FOG NEWBURGH CLOUDY 30 28 93 NE6 30.34R WCI 24 MONTGOMERY CLOUDY 32 27 81 NE6 30.33R WCI 26 POUGHKEEPSIE CLOUDY 33 27 78 N3 30.34S ALBANY FLURRIES 29 23 78 NW5 30.36F WCI 24 $$ NJZ001-105-106-008-010-013-015-019>022-104-220900- NEW JERSEY CITY SKY/WX TMP DP RH WIND PRES REMARKS NEWARK/LIBERTY CLOUDY 35 30 82 N5 30.34R WCI 31 TETERBORO CLOUDY 35 29 78 N3 30.34R CALDWELL CLOUDY 33 28 81 CALM 30.34R MORRISTOWN CLOUDY 36 28 75 CALM 30.34R SOMERVILLE CLOUDY 35 28 75 CALM 30.33R SUSSEX CLOUDY 31 26 82 NE6 30.33R WCI 25 ANDOVER N/A 31 27 85 CALM 30.32R TRENTON CLOUDY 33 25 72 CALM 30.33R MILLVILLE PTCLDY 22 20 92 CALM 30.33S ATLANTIC CITY PTCLDY 23 19 85 CALM 30.33R WRIGHTSTOWN CLOUDY 33 27 77 NW2 30.30F TOMS RIVER CLOUDY 34 28 80 CALM 30.33S BELMAR CLOUDY 36 27 69 NW7 30.33S WCI 30 $$ PAZ047>061-062-071-220900- EASTERN PENNSYLVANIA CITY SKY/WX TMP DP RH WIND PRES REMARKS PHILADELPHIA PTCLDY 29 21 72 NW3 30.35S ALLENTOWN CLOUDY 30 23 75 CALM 30.33R SCRANTON CLOUDY 31 22 69 CALM 30.29S $$ CTZ002-004>006-009-010-012-RIZ004-006-007-MAZ004-011-015-220900- SOUTHERN NEW ENGLAND IN CT CITY SKY/WX TMP DP RH WIND PRES REMARKS BRADLEY INTL CLOUDY 33 30 88 N6 30.33F WCI 28 HARTFORD CLOUDY 33 30 88 VRB5 30.35S WCI 29 DANBURY CLOUDY 33 29 85 E3 30.33R WTRBRY/OXFORD CLOUDY 32 27 80 E8 30.31S WCI 25 BRIDGEPORT CLOUDY 36 33 89 NE7 30.33S WCI 30 MERIDEN CLOUDY 34 30 85 N5 30.34S WCI 30 NEW HAVEN CLOUDY 37 32 82 N8 30.33S WCI 31 CHESTER CLOUDY 34 32 93 N6 30.32S WCI 29 GROTON CLOUDY 34 32 92 N8 30.32S WCI 27 WILLIMANTIC CLOUDY 34 29 82 N6 30.33F WCI 29 IN RI CITY SKY/WX TMP DP RH WIND PRES REMARKS PROVIDENCE CLOUDY 34 29 82 MISG 30.35S BLOCK ISLAND CLOUDY 37 34 87 NE10G16 30.31S WCI 30 WESTERLY CLOUDY 36 32 85 NE7 30.33F WCI 30 IN MA CITY SKY/WX TMP DP RH WIND PRES REMARKS BOSTON CLOUDY 33 26 75 N7 30.36F WCI 27 WORCESTER CLOUDY 30 25 81 NE7 30.32S WCI 23 WESTFIELD CLOUDY 33 30 88 N6 30.34F WCI 28 PROVINCETOWN MOCLDY 41 36 81 NE5 30.34F NANTUCKET CLEAR 38 36 92 N5 30.31S WCI 34 $$ ANZ330-335-338-340-345-350-353-355-220900- COASTAL MARINE OBSERVATIONS STATION/POSITION TIME SKY/WX TEMP WIND PRES VSBY WAVE AIR SEA DIR/SP/G HT/PER (UTC) (F) (DEG/KT/KT) (MB) (MI) (FT/S) NY HARB ENTRANCE 0800 38 47 20/ 6/ 8 1027.5 2/10 4S FIRE IS 0800 46 N/A 2/ 5 20S FIRE ISLAND 0700 41 49 1026.5 3/ 5 23SW MTP 0800 N/A 4/ 5 HUDSON CANYON 0800 44 55 230/ 4/ 6 1025.9 3/ 7 EXECUTION ROCKS 0800 37 41 20/ 8/ 10 N/A WESTERN LI SOUND 0800 37 30/ 6/ 8 N/A 1 CENTRAL LI SOUND 0700 37 44 30/ 10/ 14 N/A 1/ 4 EASTERN LI SOUND NOT AVBL ROBBINS REEF 0800 35 290/ 6/ 6 1026.1 $$ >>>>>>>>>>>>>>>>>>>>>>>>>>>> KEY <<<<<<<<<<<<<<<<<<<<<<<<<<< > < > SKY/WX - SKY CONDITION/PRESENT WEATHER < > TMP - TEMPERATURE IN FAHRENHEIT < > DP - DEWPOINT IN FAHRENHEIT < > RH - RELATIVE HUMIDITY IN PERCENT < > WIND - DIRECTION AND SPEED IN MPH < > PRES - MEAN SEA LEVEL PRESSURE IN INCHES OF HG < > WCI - WIND CHILL INDEX < > VSB - VISIBILITY IN MILES < > HX - HEAT INDEX < > TC - TEMPERATURE IN CELSIUS < > VRB - VARIABLE WIND DIRECTION < > < >>>>>>>>>>>>>>>>>>>>>>>>>>>> KEY <<<<<<<<<<<<<<<<<<<<<<<<<<<

USA.gov is the U.S. government's official web portal to all federal, state and local government web resources and services.